This demonstration page uses our WeatherBlox Daily Observations layout. Learn more.

Left ArrowRight Arrow

36.17497, -115.13722

Hourly Observations for May 7, 2021

Temp ( °F °C ) Dew Point ( °F °C ) Humidity (%) Winds ( mph kmh ) Pressure ( in mb ) Visibility ( mi km ) Precip ( " mm )
12:53 am 00:53 Clear 81 27.2 26 -3.3 13 13 SW 6 9 29.78 1008 10 16.0934 N/A
1:53 am 01:53 Clear 81 27.2 25 -3.9 13 13 SSW 10 17 29.76 1008 10 16.0934 N/A
2:53 am 02:53 Clear 79 26.1 25 -3.9 14 14 S 12 19 29.75 1007 10 16.0934 N/A
3:53 am 03:53 Clear 77 25 26 -3.3 15 15 S 10 17 29.75 1008 10 16.0934 N/A
4:53 am 04:53 Clear 75 23.9 26 -3.3 16 16 N N/A 29.76 1008 10 16.0934 N/A
5:53 am 05:53 Sunny 74 23.3 27 -2.8 17 17 S 5 7 29.78 1008 10 16.0934 N/A
6:53 am 06:53 Sunny 73 22.8 29 -1.7 19 19 N N/A 29.8 1009 10 16.0934 N/A
7:53 am 07:53 Sunny 80 26.7 31 -0.6 17 17 S 14 22 29.8 1009 10 16.0934 N/A
8:53 am 08:53 Sunny 82 27.8 32 undefined 16 16 S 13 20 29.8 1009 10 16.0934 N/A
9:53 am 09:53 Sunny 86 30 31 -0.6 14 14 SSE 21 33 29.78 1009 10 16.0934 N/A
10:53 am 10:53 Sunny 88 31.1 30 -1.1 12 12 S 17 28 29.77 1008 10 16.0934 N/A
11:53 am 11:53 Sunny 89 31.7 27 -2.8 11 11 SSW 15 24 29.76 1008 10 16.0934 N/A
12:53 pm 12:53 Sunny 92 33.3 22 -5.6 8 8 SSW 24 39 29.73 1007 10 16.0934 N/A
1:53 pm 13:53 Sunny 92 33.3 23 -5 8 8 S 22 35 29.71 1006 10 16.0934 N/A
2:53 pm 14:53 Sunny 92 33.3 24 -4.4 8 8 SSW 15 24 29.69 1005 10 16.0934 N/A
3:53 pm 15:53 Sunny 93 33.9 23 -5 8 8 SW 17 28 29.66 1005 10 16.0934 N/A
4:53 pm 16:53 Sunny 92 33.3 21 -6.1 7 7 SW 18 30 29.65 1004 10 16.0934 N/A
5:53 pm 17:53 Sunny 91 32.8 19 -7.2 7 7 SW 16 26 29.65 1004 10 16.0934 N/A
6:53 pm 18:53 Sunny 89 31.7 16 -8.9 7 7 SW 16 26 29.64 1004 10 16.0934 N/A
7:53 pm 19:53 Clear 87 30.6 19 -7.2 8 8 SSW 14 22 29.64 1004 10 16.0934 N/A
8:53 pm 20:53 Clear 85 29.4 23 -5 10 10 SSW 14 22 29.65 1004 10 16.0934 N/A
9:53 pm 21:53 Clear 84 28.9 18 -7.8 8 8 WSW 13 20 29.68 1005 10 16.0934 N/A
10:53 pm 22:53 Clear 82 27.8 21 -6.1 10 10 W 15 24 29.69 1005 10 16.0934 N/A
11:53 pm 23:53 Clear 80 26.7 29 -1.7 15 15 SW 8 13 29.69 1005 10 16.0934 N/A

Powered by AerisWeather